Location: Newark
(49.8969°N, 3.3422°E)
Time: 01:33:41
(UTC+00:00)

Envisat - Pass Details

Date: 07 December 2019
Orbit: 764 x 766 km, 98.1° (Epoch: 23 January)

Event Time Altitude Azimuth Distance (km) Brightness Sun altitude
Rises 06:28:58 0° 16° (NNE) 3,247 6.2 -9.3°
Reaches altitude 10° 06:31:19 10° 20° (NNE) 2,316 5.5 -9.0°
Maximum altitude 06:36:23 63° 101° (ESE) 859 3.6 -8.3°
Drops below altitude 10° 06:41:24 10° 183° (S) 2,298 5.8 -7.5°
Sets 06:43:44 0° 186° (S) 3,219 6.5 -7.2°
